Alexandria, LA

3:11 PM CST on November 24, 2017 (GMT -0600)
Alexandria International

Weather History for KAEX - January, 2005

Change the Weather History Date:

Sunday, January 23, 2005

  Actual Average Record
Temperature  
Mean Temperature 36 °F 49 °F  
Max Temperature 43 °F 60 °F 81 °F (1943)
Min Temperature 28 °F 38 °F 14 °F (1948)
Degree Days  
Heating Degree Days 30 16  
Month to date heating degree days 368  
Since 1 July heating degree days 1157  
Moisture  
Dew Point 13 °F    
Average Humidity 43    
Maximum Humidity 75    
Minimum Humidity 28    
Precipitation  
Precipitation 0.00 in 0.17 in 3.01 in (1980)
Month to date precipitation 3.65  
Year to date precipitation 3.65  
Snow  
Snow 0.00 in - 8.20 in (1940)
Month to date snowfall  
Since 1 July snowfall  
Snow Depth -    
Sea Level Pressure  
Sea Level Pressure 30.49 in    
Wind  
Wind Speed 10 mph (NNE)    
Max Wind Speed 16 mph    
Max Gust Speed 23 mph    
Visibility 10 miles    
Events      
T = Trace of Precipitation, MM = Missing Value Source: NWS Daily Summary

Daily Weather History Graph

Daily Weather History Graph

Search for Another Location

Airport or City:

Trip Planner

Search our weather history database for the weather conditions in past years. The results will help you decide how hot, cold, wet, or windy it might be!

Date:

Astronomy

Jan. 23, 2005 Rise Set
Actual Time 7:07 AM CST 5:37 PM CST
Civil Twilight 6:41 AM CST 6:03 PM CST
Nautical Twilight 6:11 AM CST 6:32 PM CST
Astronomical Twilight 5:43 AM CST 7:01 PM CST
Moon 4:03 PM CST (1/23) 6:09 AM CST (1/23)
Length of Visible Light 11h 21m
Length of Day
10h 30m
Waxing Gibbous, 97% of the Moon is Illuminated
Jan 23
Waxing Gibbous
Jan 25
Full
Feb 2
Last Quarter
Feb 8
New
Feb 15
First Quarter

Hourly Weather History & Observations

Time (CST) Temp. Windchill Dew Point Humidity Pressure Visibility Wind Dir Wind Speed Gust Speed Precip Events Conditions
12:53 AM 36.0 °F 27.5 °F 9.0 °F 33% 30.44 in 10.0 mi North 12.7 mph 19.6 mph N/A   Clear
1:53 AM 35.1 °F 25.5 °F 6.1 °F 30% 30.45 in 10.0 mi North 15.0 mph 23.0 mph N/A   Clear
2:53 AM 33.1 °F 24.4 °F 9.0 °F 37% 30.46 in 10.0 mi NNE 11.5 mph - N/A   Clear
3:53 AM 32.0 °F 21.2 °F 9.0 °F 38% 30.46 in 10.0 mi North 16.1 mph 20.7 mph N/A   Clear
4:53 AM 30.9 °F 23.5 °F 10.9 °F 43% 30.48 in 10.0 mi NNE 8.1 mph - N/A   Clear
6:53 AM 28.0 °F 18.1 °F 12.9 °F 53% 30.51 in 10.0 mi NNE 11.5 mph - N/A   Clear
7:53 AM 28.0 °F 17.5 °F 12.9 °F 53% 30.54 in 10.0 mi NE 12.7 mph 17.3 mph N/A   Clear
8:53 AM 28.9 °F 18.2 °F 12.0 °F 49% 30.55 in 10.0 mi NE 13.8 mph 18.4 mph N/A   Clear
9:53 AM 30.9 °F 22.8 °F 12.0 °F 46% 30.56 in 10.0 mi NE 9.2 mph - N/A   Clear
10:53 AM 35.1 °F 27.9 °F 10.9 °F 37% 30.56 in 10.0 mi NE 9.2 mph - N/A   Clear
11:53 AM 37.0 °F 32.4 °F 10.9 °F 34% 30.53 in 10.0 mi Variable 5.8 mph - N/A   Clear
12:53 PM 39.0 °F 32.8 °F 12.0 °F 33% 30.51 in 10.0 mi North 9.2 mph - N/A   Clear
1:53 PM 41.0 °F 34.3 °F 12.0 °F 31% 30.48 in 10.0 mi NNE 11.5 mph - N/A   Clear
2:53 PM 42.1 °F 36.1 °F 10.9 °F 28% 30.47 in 10.0 mi NNE 10.4 mph - N/A   Clear
3:53 PM 43.0 °F 37.2 °F 12.0 °F 28% 30.47 in 10.0 mi NNE 10.4 mph - N/A   Clear
4:53 PM 39.9 °F 35.8 °F 12.9 °F 33% 30.47 in 10.0 mi NE 5.8 mph - N/A   Clear
5:53 PM 37.9 °F 33.5 °F 15.1 °F 39% 30.48 in 10.0 mi NNE 5.8 mph - N/A   Clear
6:53 PM 35.1 °F 31.0 °F 16.0 °F 46% 30.48 in 10.0 mi North 4.6 mph - N/A   Clear
7:53 PM 34.0 °F 29.8 °F 16.0 °F 48% 30.48 in 10.0 mi NNE 4.6 mph - N/A   Clear
8:53 PM 33.1 °F 30.0 °F 16.0 °F 50% 30.49 in 10.0 mi NE 3.5 mph - N/A   Clear
9:53 PM 30.9 °F - 18.0 °F 59% 30.49 in 10.0 mi Calm Calm - N/A   Clear
10:53 PM 30.9 °F 26.2 °F 19.9 °F 64% 30.48 in 10.0 mi East 4.6 mph - N/A   Clear
11:53 PM 28.9 °F - 21.9 °F 75% 30.48 in 10.0 mi Calm Calm - N/A   Clear